Precipitable_Water
1.29 1.40 1.24 1.20 1.19 1.21 1.28 1.37 1.48 1.46 1.46 1.59 1.66 1.55 1.56 1.53 1.59 1.67 1.63 1.56 1.52 1.52 1.54 1.57 1.51 1.49 1.27 1.14 1.10 1.01 0.97 0.94 0.96 1.04 1.06 1.08 1.05 0.99 0.95 0.83 0.90 1.09 1.04
1.32 1.36 1.23 1.18 1.14 1.25 1.23 1.20 1.32 1.44 1.51 1.45 1.45 1.67 1.73 1.75 1.71 1.69 1.66 1.76 1.72 1.67 1.65 1.65 1.63 1.56 1.35 1.27 1.19 1.12 1.09 1.06 0.97 0.98 1.05 1.04 1.00 1.00 0.91 0.83 1.05 1.20 0.95
1.29 1.32 1.27 1.11 1.07 1.10 1.21 1.20 1.24 1.30 1.37 1.51 1.56 1.52 1.70 1.69 1.78 1.83 1.72 1.64 1.73 1.81 1.70 1.76 1.69 1.61 1.55 1.39 1.28 1.19 1.20 1.08 1.06 0.96 0.90 1.07 1.10 0.94 0.90 0.88 1.02 1.09 0.93
1.32 1.32 1.28 1.11 1.08 1.02 1.04 1.04 1.09 1.18 1.30 1.24 1.32 1.50 1.58 1.62 1.44 1.51 1.57 1.33 1.35 1.69 1.77 1.81 1.70 1.63 1.63 1.60 1.45 1.32 1.18 1.08 1.03 1.06 0.98 1.11 1.28 1.16 0.99 0.92 0.97 1.03 0.94
1.32 1.29 1.21 1.16 1.13 1.07 1.01 1.01 1.09 1.17 1.17 1.19 1.32 1.45 1.50 1.58 1.61 1.51 1.49 1.43 1.34 1.60 1.80 1.80 1.66 1.67 1.67 1.63 1.54 1.39 1.19 1.10 1.11 1.06 1.07 1.09 1.06 1.22 1.06 1.03 1.07 1.01 1.00
1.27 1.31 1.21 1.19 1.17 1.10 1.03 1.05 1.06 1.05 1.07 1.13 1.18 1.18 1.28 1.43 1.54 1.50 1.41 1.44 1.49 1.73 1.87 1.88 1.84 1.74 1.61 1.64 1.45 1.43 1.25 1.14 1.15 1.10 1.05 1.10 1.01 1.32 1.20 1.05 1.19 1.22 1.19
1.18 1.25 1.25 1.19 1.17 1.13 1.07 0.98 0.99 1.02 1.03 1.02 1.06 1.09 1.05 1.08 1.24 1.30 1.34 1.46 1.64 1.60 1.64 1.77 1.71 1.73 1.59 1.41 1.29 1.29 1.27 1.11 1.15 1.14 1.14 1.12 1.07 1.17 1.17 1.09 1.22 1.36 1.34
1.12 1.17 1.24 1.14 1.08 1.05 1.03 1.02 1.02 1.03 1.07 1.10 1.10 1.11 1.10 1.04 1.05 1.07 1.13 1.17 1.18 1.31 1.41 1.44 1.45 1.40 1.30 1.27 1.08 1.09 1.22 1.14 1.16 1.12 1.14 1.19 1.30 1.31 1.25 1.19 1.27 1.31 1.26
1.02 1.08 1.11 1.09 1.05 1.03 0.99 0.94 0.99 1.03 1.05 1.07 1.11 1.11 1.12 1.11 1.08 1.07 1.02 1.05 1.13 1.08 1.31 1.34 1.26 1.25 1.22 1.25 1.12 1.13 1.10 1.17 1.13 1.29 1.20 1.21 1.28 1.30 1.30 1.36 1.30 1.23 1.20
1.02 1.00 0.98 1.03 1.06 1.06 1.06 0.96 0.94 0.97 1.02 1.06 1.08 1.08 1.06 1.06 1.05 1.03 1.07 1.09 1.11 1.19 1.18 1.25 1.35 1.33 1.22 1.23 1.17 1.18 1.25 1.26 1.24 1.30 1.39 1.34 1.30 1.29 1.26 1.31 1.46 1.39 1.08
0.81 0.81 0.91 0.99 1.03 0.98 0.96 0.92 1.07 1.08 1.02 1.04 1.03 1.00 1.03 1.14 1.07 1.06 1.03 1.08 1.15 1.21 1.22 1.26 1.24 1.35 1.29 1.22 1.21 1.20 1.27 1.28 1.32 1.36 1.44 1.46 1.36 1.32 1.25 1.19 1.46 1.46 1.27
0.60 0.65 0.74 0.86 0.94 0.97 0.98 0.94 1.10 1.14 1.11 1.11 1.11 1.10 1.07 1.09 1.12 1.14 1.15 1.15 1.17 1.21 1.27 1.26 1.30 1.25 1.39 1.36 1.38 1.25 1.11 1.19 1.26 1.32 1.38 1.42 1.39 1.34 1.27 1.18 1.34 1.42 1.38
0.65 0.67 0.73 0.84 0.96 1.06 1.08 1.07 1.16 1.07 1.09 1.04 1.02 0.99 0.99 0.93 0.94 0.98 1.00 1.05 0.95 0.93 1.12 1.10 1.23 1.27 1.27 1.31 1.45 1.47 1.26 1.24 1.24 1.28 1.31 1.31 1.31 1.33 1.31 1.23 1.20 1.42 1.41
0.63 0.65 0.71 0.80 0.85 0.89 0.94 0.98 0.99 0.93 0.90 0.88 0.90 0.88 0.80 0.72 0.67 0.68 0.72 0.68 0.72 0.81 0.82 0.89 1.19 1.28 1.26 1.26 1.25 1.36 1.39 1.38 1.37 1.39 1.37 1.32 1.29 1.30 1.30 1.30 1.23 1.29 1.34
0.52 0.58 0.57 0.63 0.71 0.79 0.79 0.78 0.76 0.71 0.68 0.65 0.67 0.69 0.71 0.64 0.63 0.66 0.64 0.64 0.65 0.68 0.71 0.77 0.91 0.99 1.20 1.25 1.27 1.27 1.28 1.32 1.31 1.32 1.27 1.25 1.28 1.30 1.30 1.26 1.27 1.28 1.34
0.48 0.49 0.50 0.56 0.62 0.65 0.67 0.65 0.58 0.54 0.52 0.53 0.57 0.60 0.64 0.65 0.64 0.68 0.64 0.64 0.65 0.73 0.79 0.82 0.85 0.96 1.07 1.02 1.18 1.23 1.27 1.31 1.35 1.29 1.27 1.23 1.21 1.21 1.22 1.31 1.29 1.25 1.35
0.43 0.43 0.42 0.47 0.52 0.52 0.52 0.47 0.45 0.44 0.46 0.50 0.56 0.58 0.57 0.59 0.56 0.54 0.54 0.56 0.59 0.60 0.60 0.62 0.68 0.76 0.81 0.97 1.03 1.16 1.23 1.23 1.21 1.25 1.24 1.19 1.18 1.17 1.20 1.19 1.21 1.25 1.26
0.39 0.38 0.43 0.38 0.45 0.46 0.48 0.46 0.45 0.46 0.47 0.52 0.55 0.54 0.52 0.50 0.52 0.52 0.52 0.53 0.52 0.55 0.55 0.53 0.57 0.59 0.68 0.75 0.82 0.95 1.08 1.04 1.15 1.07 1.14 1.09 1.14 1.13 1.10 1.12 1.08 1.08 1.24
0.43 0.44 0.45 0.46 0.48 0.49 0.50 0.50 0.52 0.52 0.50 0.54 0.57 0.56 0.54 0.52 0.49 0.47 0.49 0.51 0.49 0.47 0.47 0.43 0.42 0.44 0.49 0.61 0.68 0.71 0.83 0.90 1.02 1.00 1.07 1.06 1.04 1.02 1.08 1.04 1.06 1.00 0.98
0.47 0.46 0.47 0.49 0.49 0.50 0.51 0.52 0.53 0.54 0.57 0.58 0.57 0.56 0.57 0.56 0.53 0.51 0.52 0.55 0.54 0.51 0.49 0.49 0.45 0.42 0.40 0.40 0.45 0.42 0.52 0.76 0.86 0.95 0.93 1.04 1.04 1.02 1.02 1.07 1.07 1.07 1.04
0.46 0.46 0.46 0.48 0.49 0.49 0.47 0.47 0.49 0.52 0.55 0.56 0.55 0.56 0.57 0.54 0.55 0.55 0.53 0.54 0.56 0.53 0.54 0.54 0.51 0.46 0.43 0.43 0.40 0.39 0.36 0.39 0.51 0.77 1.02 0.97 1.11 1.04 0.99 1.03 1.07 1.12 1.14
0.46 0.47 0.46 0.47 0.49 0.51 0.49 0.50 0.51 0.53 0.54 0.57 0.58 0.59 0.60 0.58 0.58 0.57 0.55 0.56 0.55 0.54 0.56 0.54 0.53 0.48 0.47 0.46 0.40 0.38 0.33 0.38 0.50 0.71 0.79 0.91 1.02 1.02 0.99 1.02 1.00 1.02 1.08
0.50 0.51 0.51 0.50 0.51 0.52 0.52 0.50 0.52 0.55 0.54 0.52 0.51 0.55 0.61 0.64 0.64 0.63 0.63 0.61 0.60 0.60 0.55 0.55 0.54 0.51 0.44 0.47 0.46 0.40 0.33 0.32 0.38 0.41 0.54 0.68 0.82 0.94 0.99 0.99 0.95 0.99 1.01
0.52 0.56 0.55 0.54 0.53 0.53 0.54 0.53 0.51 0.51 0.50 0.52 0.51 0.52 0.55 0.61 0.65 0.67 0.64 0.61 0.59 0.60 0.58 0.57 0.56 0.53 0.52 0.46 0.47 0.47 0.45 0.40 0.33 0.30 0.34 0.34 0.48 0.61 0.84 1.01 0.92 0.94 0.98
0.54 0.56 0.58 0.59 0.57 0.56 0.54 0.56 0.54 0.53 0.55 0.54 0.54 0.57 0.61 0.63 0.64 0.64 0.63 0.61 0.59 0.58 0.56 0.55 0.55 0.55 0.54 0.51 0.50 0.47 0.45 0.43 0.42 0.35 0.28 0.31 0.36 0.40 0.62 0.75 0.90 0.98 0.94
0.56 0.59 0.62 0.62 0.60 0.59 0.58 0.57 0.58 0.55 0.56 0.55 0.55 0.57 0.61 0.58 0.59 0.57 0.57 0.57 0.57 0.54 0.52 0.53 0.53 0.51 0.49 0.49 0.49 0.48 0.45 0.42 0.40 0.38 0.34 0.33 0.31 0.36 0.46 0.45 0.68 0.85 0.96
Wind_Speed
7 8 8 8 8 8 8 7 8 10 12 13 13 15 16 16 18 17 16 16 16 16 16 14 15 15 14 14 13 13 12 12 11 11 11 11 11 11 10 10 10 10 10
6 6 7 7 8 10 9 9 10 9 10 11 14 15 18 18 20 19 18 16 18 18 18 16 16 15 15 15 14 14 13 13 12 12 12 12 12 11 11 11 11 12 11
6 7 8 9 10 11 12 12 12 10 10 12 13 15 17 19 20 20 20 17 19 20 19 18 17 17 15 15 15 14 14 14 13 13 13 13 13 12 13 13 12 12 12
7 8 9 10 11 11 12 13 14 14 13 14 16 19 20 21 24 24 25 24 27 18 19 19 18 17 16 16 16 16 15 16 15 14 14 14 14 14 14 14 14 13 13
7 9 10 11 12 12 13 14 14 15 15 16 16 16 19 21 23 25 25 24 24 24 22 19 18 18 18 17 16 17 17 18 18 17 16 16 16 16 16 16 15 15 15
9 10 10 11 12 13 13 13 13 14 16 17 17 19 21 22 22 22 22 23 23 25 24 21 18 16 16 17 19 18 18 19 19 20 19 18 18 18 17 18 18 17 16
10 11 12 12 13 13 13 14 15 15 16 17 18 19 20 21 22 22 23 23 25 26 24 16 19 18 18 19 19 20 20 20 20 21 20 21 21 20 20 20 21 20 19
11 12 13 13 13 14 15 16 17 17 18 19 20 21 22 22 22 23 24 24 25 23 22 22 22 22 21 20 22 22 22 22 21 21 22 21 22 23 22 22 22 22 22
13 13 14 14 15 15 15 16 17 18 18 19 19 19 20 21 23 24 24 24 24 24 23 24 24 24 24 24 23 23 23 24 25 24 23 23 23 24 24 25 25 25 25
15 15 15 16 16 17 18 17 17 18 18 19 19 20 20 21 22 24 25 26 26 25 26 27 27 27 28 28 27 27 26 26 26 27 25 26 25 24 25 26 27 28 27
14 15 16 17 18 19 19 18 18 17 18 17 18 19 20 20 22 23 24 26 27 27 27 27 28 30 31 31 31 32 31 30 30 29 28 27 27 28 27 28 28 29 28
14 15 16 18 19 20 19 18 17 16 16 16 17 17 19 20 21 22 22 24 26 29 30 30 32 31 32 33 32 33 33 32 31 31 30 30 29 30 30 31 30 30 30
14 16 17 18 18 17 16 15 14 15 14 14 14 14 14 16 17 19 20 22 23 26 29 34 38 33 33 35 33 31 35 35 34 34 36 35 34 33 34 34 33 33 33
12 13 13 12 11 10 9 9 10 10 11 11 12 13 14 15 16 16 16 18 20 21 23 27 28 36 32 27 27 32 34 37 37 37 37 38 39 38 36 36 36 36 36
8 9 9 7 7 8 7 9 10 11 12 13 14 16 17 17 18 18 18 19 20 21 22 22 19 22 33 37 35 33 33 39 38 37 36 38 37 39 41 41 40 39 38
10 9 9 9 11 11 11 12 13 14 16 17 18 18 19 19 20 20 21 21 22 23 24 24 23 21 22 25 29 30 32 33 37 38 37 38 39 38 36 39 42 43 40
12 11 12 13 14 15 15 16 17 18 18 19 20 20 21 22 22 22 22 23 24 24 25 25 25 24 24 26 26 28 28 28 29 34 37 37 38 40 41 41 42 41 45
14 15 16 17 18 18 19 20 21 22 23 23 24 24 25 25 25 25 25 26 26 26 26 26 25 26 26 26 27 28 29 29 31 31 34 35 36 38 40 42 42 42 44
16 17 18 19 20 20 21 22 23 25 25 26 27 27 28 28 28 28 28 28 29 28 28 28 28 28 28 28 29 29 30 31 31 32 33 33 35 36 37 39 41 42 46
18 20 21 21 22 22 23 25 26 27 27 28 29 29 29 30 30 30 31 31 31 31 31 30 30 30 30 30 31 32 33 32 33 34 34 34 34 35 36 37 38 42 43
21 22 22 23 24 25 26 27 27 29 29 30 31 31 32 31 32 32 33 34 34 34 34 33 32 32 31 31 32 32 33 34 35 35 36 35 34 35 36 37 37 39 42
22 23 24 25 26 27 28 29 30 30 31 31 32 34 34 34 35 35 35 35 36 37 37 36 35 34 34 33 33 33 32 32 33 33 35 36 38 37 37 38 38 40 41
23 25 26 28 28 29 29 30 31 32 34 35 36 37 37 37 38 39 39 39 38 38 37 37 37 37 36 36 36 35 34 33 35 34 35 36 37 39 40 39 40 41 42
26 27 28 29 30 31 31 32 34 35 35 36 36 36 37 38 40 40 40 40 40 39 39 39 39 39 39 39 38 38 38 39 38 38 38 38 39 40 40 41 43 43 44
27 28 29 31 32 34 35 35 37 38 39 38 38 39 40 40 40 41 41 41 41 41 41 42 42 42 41 42 41 40 40 41 41 41 42 41 42 41 43 43 41 44 46
29 29 31 32 34 36 37 38 39 40 39 39 39 40 40 40 40 40 40 41 42 42 43 43 42 42 43 43 43 43 43 42 42 43 44 44 44 44 45 46 46 46 46
Wind_Direction
268 259 251 253 262 267 275 273 271 265 258 253 249 242 245 241 237 240 242 242 239 235 233 229 228 225 224 224 223 221 220 218 216 212 211 211 212 211 211 210 204 207 203
243 246 256 264 268 267 266 267 272 274 262 255 254 251 247 243 244 243 243 245 244 237 234 232 228 225 225 225 223 223 224 222 219 217 213 215 216 217 215 211 213 206 208
246 252 260 270 271 275 259 269 266 269 265 267 264 255 249 250 252 246 236 246 251 240 234 231 229 227 226 226 225 224 225 223 221 221 220 221 221 221 219 217 218 215 216
251 260 268 275 277 276 270 272 271 268 268 275 271 260 261 258 262 255 257 265 260 258 248 231 229 229 228 230 231 231 232 230 226 225 226 227 224 226 225 221 222 222 221
257 270 275 276 280 279 276 276 274 267 270 279 275 269 268 267 268 270 270 261 264 244 248 237 230 232 233 233 238 237 236 235 232 230 231 231 232 229 227 226 227 226 224
267 273 276 281 282 281 281 277 275 273 275 278 275 275 274 273 275 273 270 270 265 255 246 242 236 236 234 242 243 243 241 240 236 235 235 234 233 229 232 230 230 227 225
269 276 279 281 283 283 284 281 279 278 279 279 279 278 276 275 277 276 275 273 268 267 261 254 260 255 248 249 245 243 243 240 239 239 239 238 236 236 236 234 232 231 226
274 278 280 285 286 284 284 283 282 281 282 282 281 278 276 277 277 278 277 276 272 273 271 266 262 259 254 251 248 246 245 241 241 243 242 243 238 238 239 236 232 228 230
280 282 282 285 286 286 288 288 286 284 284 285 283 281 279 277 278 279 278 277 276 273 272 265 263 259 255 253 250 248 244 242 244 245 245 245 240 242 242 239 235 233 234
281 281 283 284 287 288 287 290 288 287 285 283 284 283 280 280 281 281 278 278 275 273 273 267 264 263 259 256 253 249 247 246 245 245 246 245 242 243 243 241 239 238 236
282 283 284 285 287 289 287 288 287 288 287 284 284 284 282 281 284 284 282 278 276 275 274 271 268 265 260 256 253 251 249 248 246 247 246 244 244 246 245 242 240 239 238
284 286 288 289 289 288 286 287 287 289 288 287 286 286 286 286 286 286 286 283 281 278 273 274 270 267 260 256 254 250 249 247 248 246 245 247 248 248 247 243 242 241 239
283 288 292 293 292 287 284 284 288 292 291 292 290 290 291 294 294 291 291 287 287 287 276 277 268 263 260 259 250 255 250 248 248 248 249 250 251 251 248 245 243 242 241
290 295 300 302 303 300 295 293 295 297 298 298 299 298 298 299 300 301 301 299 298 295 292 291 278 252 252 256 260 256 251 250 251 251 251 251 251 250 250 243 244 243 243
302 306 307 309 313 309 304 301 300 298 299 298 297 298 297 298 298 298 298 299 300 300 300 301 294 271 258 256 263 260 257 252 252 250 252 252 252 252 252 245 242 245 243
297 298 297 296 297 295 293 293 293 294 294 296 297 297 297 297 298 298 298 299 299 298 297 296 292 284 270 265 261 257 258 258 250 250 252 252 252 252 250 244 246 244 242
287 287 289 290 290 289 287 287 288 289 290 291 292 293 294 294 296 296 297 298 300 300 298 295 292 285 277 270 264 262 262 256 257 251 253 254 253 252 252 252 248 243 241
285 285 288 290 288 288 288 287 287 287 287 288 288 289 290 291 291 292 293 295 297 297 297 295 291 287 281 276 271 266 261 260 257 257 256 255 254 256 253 252 250 248 242
284 287 288 289 288 288 288 287 288 288 288 288 288 288 289 289 289 290 290 292 294 293 293 292 290 286 282 278 276 271 266 263 259 259 258 256 256 257 255 252 250 248 245
284 287 287 287 287 287 287 287 288 287 286 287 286 286 287 288 290 290 290 290 292 292 291 290 288 285 281 278 276 274 270 267 262 259 260 258 257 257 257 254 253 249 245
285 286 286 286 286 286 286 287 287 287 286 286 286 285 287 287 287 289 290 290 290 290 289 287 286 284 281 279 277 274 271 267 265 262 259 259 258 257 259 256 253 251 246
287 287 287 286 286 287 288 288 287 288 288 287 286 285 285 285 287 289 289 290 290 289 288 286 284 282 279 277 276 275 271 268 264 265 264 261 258 260 258 256 255 253 249
290 289 288 286 286 286 286 288 289 288 287 287 286 285 284 283 285 286 287 288 288 289 288 285 284 282 279 277 275 273 272 267 269 267 263 263 264 261 258 258 256 253 252
293 292 289 288 286 287 287 287 287 288 289 288 287 284 285 286 286 287 286 287 287 287 286 285 283 281 280 277 274 272 269 269 268 267 265 265 263 263 261 259 257 256 253
296 293 292 290 288 287 287 287 288 287 288 288 286 285 285 285 286 287 287 287 287 287 286 284 282 281 279 276 273 272 270 269 268 267 267 265 264 262 260 260 260 256 253
301 297 295 293 292 289 288 288 288 288 289 288 287 286 286 286 286 287 287 288 287 288 286 284 282 280 278 276 273 271 270 269 268 267 267 266 265 263 262 260 259 257 255